Fullerton, CA

6:53 PM PST on February 24, 2017 (GMT -0800)
Fullerton Municipal

Weather History for KFUL - October, 2013

Change the Weather History Date:

Sunday, October 6, 2013

  Actual Average Record
Temperature  
Mean Temperature 75 °F 70 °F  
Max Temperature 95 °F 80 °F 97 °F (2005)
Min Temperature 55 °F 60 °F 51 °F (2011)
Degree Days  
Heating Degree Days 0 0  
Month to date heating degree days 0 0  
Since 1 July heating degree days 0 1  
Cooling Degree Days 10 5  
Month to date cooling degree days 52 33  
Year to date cooling degree days 1803 1151  
Growing Degree Days 25 (Base 50)    
Moisture  
Dew Point 28 °F    
Average Humidity 26    
Maximum Humidity 47    
Minimum Humidity 5    
Precipitation  
Precipitation 0.00 in 0.02 in 0.22 in (2010)
Month to date precipitation 0.00 0.06  
Year to date precipitation 2.53 10.04  
Since 1 July precipitation T  
Snow  
Snow 0.00 in - - ()
Month to date snowfall 0.0  
Year to date snowfall 0.0  
Snow Depth 0.00 in    
Sea Level Pressure  
Sea Level Pressure 30.00 in    
Wind  
Wind Speed 3 mph (NW)    
Max Wind Speed 10 mph    
Max Gust Speed 15 mph    
Visibility 10 miles    
Events      
T = Trace of Precipitation, MM = Missing Value Source: NWS Daily Summary

Daily Weather History Graph

Daily Weather History Graph

Search for Another Location

Airport or City:

Trip Planner

Search our weather history database for the weather conditions in past years. The results will help you decide how hot, cold, wet, or windy it might be!

Date:

Astronomy

Oct. 06, 2013 Rise Set
Actual Time 6:50 AM PDT 6:29 PM PDT
Civil Twilight 6:25 AM PDT 6:53 PM PDT
Nautical Twilight 5:56 AM PDT 7:22 PM PDT
Astronomical Twilight 5:27 AM PDT 7:51 PM PDT
Moon 8:33 AM PDT (10/6) 7:39 PM PDT (10/6)
Length of Visible Light 12h 28m
Length of Day
11h 38m
Waxing Crescent, 4% of the Moon is Illuminated
Oct 6
Waxing Crescent
Oct 11
First Quarter
Oct 18
Full
Oct 26
Last Quarter
Nov 3
New

Hourly Weather History & Observations

Time (PDT) Temp. Dew Point Humidity Pressure Visibility Wind Dir Wind Speed Gust Speed Precip Events Conditions
12:53 AM 72.0 °F 23.0 °F 16% 30.04 in 10.0 mi ENE 6.9 mph - N/A   Clear
1:53 AM 66.0 °F 32.0 °F 28% 30.05 in 10.0 mi Calm Calm - N/A   Clear
2:53 AM 64.0 °F 30.9 °F 29% 30.04 in 10.0 mi North 4.6 mph - N/A   Clear
3:53 AM 61.0 °F 34.0 °F 36% 30.04 in 10.0 mi Calm Calm - N/A   Clear
4:53 AM 57.9 °F 34.0 °F 41% 30.04 in 10.0 mi Calm Calm - N/A   Clear
5:53 AM 57.0 °F 37.0 °F 47% 30.04 in 10.0 mi Calm Calm - N/A   Clear
6:53 AM 57.9 °F 34.0 °F 41% 30.05 in 10.0 mi Calm Calm - N/A   Clear
7:53 AM 63.0 °F 32.0 °F 31% 30.06 in 10.0 mi NW 3.5 mph - N/A   Clear
8:53 AM 72.0 °F 30.9 °F 22% 30.07 in 10.0 mi Calm Calm - N/A   Clear
9:53 AM 82.9 °F 32.0 °F 16% 30.06 in 10.0 mi WNW 3.5 mph - N/A   Clear
10:53 AM 87.1 °F 18.0 °F 8% 30.06 in 10.0 mi NNW 3.5 mph - N/A   Clear
11:53 AM 89.1 °F 19.0 °F 8% 30.04 in 10.0 mi NNW 3.5 mph - N/A   Clear
12:53 PM 91.0 °F 17.1 °F 7% 30.01 in 10.0 mi WNW 5.8 mph - N/A   Clear
1:53 PM 93.9 °F 14.0 °F 5% 29.98 in 10.0 mi West 5.8 mph - N/A   Clear
2:53 PM 93.9 °F 14.0 °F 5% 29.96 in 10.0 mi Variable 5.8 mph - N/A   Clear
3:53 PM 93.0 °F 15.1 °F 6% 29.95 in 10.0 mi West 6.9 mph - N/A   Clear
4:53 PM 93.0 °F 16.0 °F 6% 29.94 in 10.0 mi West 6.9 mph - N/A   Clear
5:53 PM 87.1 °F 28.9 °F 12% 29.94 in 10.0 mi WNW 6.9 mph - N/A   Clear
6:53 PM 80.1 °F 27.0 °F 14% 29.95 in 10.0 mi West 5.8 mph - N/A   Clear
7:53 PM 75.9 °F 28.0 °F 17% 29.96 in 10.0 mi Calm Calm - N/A   Clear
8:53 PM 72.0 °F 33.1 °F 24% 29.96 in 10.0 mi Calm Calm - N/A   Clear
9:53 PM 69.1 °F 39.0 °F 33% 29.96 in 10.0 mi Calm Calm - N/A   Clear
10:53 PM 68.0 °F 37.0 °F 32% 29.96 in 10.0 mi Calm Calm - N/A   Clear
11:53 PM 66.9 °F 37.0 °F 33% 29.95 in 10.0 mi Calm Calm - N/A   Clear